SBLP

Details ICAO SBLP (LAZ)
Name BOM JESUS DA LAPA
Region Brazil
Timezone America/Bahia (UTC-3.0)
Plans Departing 2
Arriving 6
Stats Elevation 1,454 ft / 443 m (AMSL)
Location -13.262085° -43.408113°
Runways 1
Magnetic Variation 22.826° W
Sunrise 2018-05-24 09:08:46 UTC / 2018-05-24 06:08:46 Local
Sunset 2018-05-24 20:35:04 UTC / 2018-05-24 17:35:04 Local
Advertisement - Login to hide

Runways

ID Width Length Bearing (true) Bearing (mag) Surface Threshold Offset Overrun Length
18 98 ft / 30 m 3,984 ft / 1,214 m 159.73° 182.56° Asphalt 0 ft / 0 m 0 ft / 0 m
36 98 ft / 30 m 3,984 ft / 1,214 m 339.73° 2.56° Asphalt 0 ft / 0 m 0 ft / 0 m

Map

Weather


0- 5 10 15 20 25 30 35+ Temperature / ° C

Clouds and Precipitation
Forecast for 2018-05-24 06:00 UTC. Updated 2 hours ago

Ground ~20,000 ft ~40,000 ft Winds

METAR

Not found

TAF

TAF SBLP 240200Z 2406/2418 31005KT 9999 FEW025 TN26/2411Z TX34/2417Z RMK PEA

Frequencies

Tower 125.90 MHz LAPA RDO
Warning: Do not use this data for real-world aviation or navigation. No guarantee of current accuracy is given.